Location: Vesunti
(61.5000°N, 22.8333°E)
Time: 07:29:10
(UTC+00:00)

H-2A R/B - Pass Details

Date: 17 February 2020
Orbit: 530 x 652 km, 98.3° (Epoch: 30 March)

Event Time Altitude Azimuth Distance (km) Brightness Sun altitude
Rises 05:11:27 0° 16° (NNE) 2,852 6.0 -7.3°
Reaches altitude 10° 05:13:52 10° 3° (N) 1,968 5.1 -7.0°
Maximum altitude 05:17:23 26° 308° (NW) 1,246 3.6 -6.6°
Drops below altitude 10° 05:20:59 10° 253° (WSW) 2,016 4.7 -6.2°
Sets 05:23:29 0° 241° (WSW) 2,938 5.6 -5.9°
